| time (UTC) | temp F | wind direction | speed knots | gust knots | rain 1hr in | rain 24hr in | rain mn in | humidity % | barometer mb |
| 20260509194556 | 44 | 105 | 0.9 | 1.7 | 0.00 | 0.06 | 0.03 | 82 | 998.8 |
| 20260509193100 | 43 | 247 | 0.0 | 1.7 | 0.00 | 0.06 | 0.03 | 80 | 998.6 |
| 20260509191609 | 43 | 86 | 0.9 | 1.7 | 0.00 | 0.06 | 0.03 | 80 | 998.8 |
| 20260509190049 | 43 | 113 | 0.0 | 2.6 | 0.00 | 0.06 | 0.03 | 82 | 998.8 |
| 20260509184558 | 42 | 136 | 0.0 | 2.6 | 0.00 | 0.06 | 0.03 | 83 | 998.8 |
| 20260509183052 | 41 | 44 | 0.0 | 1.7 | 0.00 | 0.06 | 0.03 | 85 | 998.8 |
| 20260509181547 | 40 | 74 | 0.0 | 1.7 | 0.00 | 0.06 | 0.03 | 86 | 998.7 |
| 20260509180039 | 40 | 97 | 0.9 | 3.5 | 0.00 | 0.06 | 0.03 | 88 | 998.7 |
| 20260509174557 | 39 | 121 | 0.9 | 4.3 | 0.00 | 0.06 | 0.03 | 88 | 998.7 |
| 20260509173057 | 40 | 131 | 0.0 | 2.6 | 0.00 | 0.06 | 0.03 | 89 | 998.7 |
| 20260509171601 | 40 | 129 | 0.0 | 2.6 | 0.00 | 0.06 | 0.03 | 89 | 998.7 |
| 20260509170059 | 39 | 53 | 0.0 | 3.5 | 0.00 | 0.06 | 0.03 | 91 | 998.7 |
| 20260509164557 | 38 | 65 | 0.0 | 2.6 | 0.00 | 0.06 | 0.03 | 93 | 999.0 |
| 20260509163056 | 36 | 32 | 0.0 | 2.6 | 0.00 | 0.06 | 0.03 | 95 | 998.9 |
| 20260509161545 | 35 | 331 | 0.9 | 2.6 | 0.00 | 0.06 | 0.03 | 95 | 998.8 |
| 20260509160058 | 34 | 328 | 0.9 | 4.3 | 0.00 | 0.06 | 0.03 | 96 | 998.7 |
| 20260509154551 | 33 | 342 | 0.9 | 2.6 | 0.00 | 0.06 | 0.03 | 97 | 998.8 |
| 20260509153046 | 33 | 332 | 0.0 | 0.9 | 0.00 | 0.06 | 0.03 | 97 | 998.9 |
| 20260509151500 | 33 | 225 | 0.0 | 0.0 | 0.00 | 0.06 | 0.03 | 97 | 999.0 |
| 20260509150052 | 32 | 225 | 0.0 | 0.0 | 0.00 | 0.06 | 0.03 | 97 | 999.1 |
| 20260509144551 | 32 | 152 | 0.0 | 0.0 | 0.00 | 0.06 | 0.03 | 97 | 999.3 |
| 20260509143043 | 32 | 160 | 0.0 | 0.9 | 0.00 | 0.06 | 0.03 | 96 | 999.3 |
| 20260509141557 | 32 | 166 | 0.0 | 1.7 | 0.00 | 0.06 | 0.03 | 96 | 999.4 |
| 20260509140050 | 32 | 80 | 0.0 | 0.0 | 0.00 | 0.06 | 0.03 | 96 | 999.4 |
| 20260509134508 | 32 | 70 | 0.9 | 3.5 | 0.00 | 0.06 | 0.03 | 96 | 999.4 |
| 20260509133059 | 32 | 357 | 0.9 | 6.1 | 0.00 | 0.06 | 0.03 | 96 | 999.5 |
| 20260509131613 | 33 | 47 | 0.0 | 3.5 | 0.00 | 0.06 | 0.03 | 97 | 999.9 |
| 20260509130056 | 33 | 341 | 0.0 | 2.6 | 0.00 | 0.06 | 0.03 | 97 | 1000.0 |
| 20260509124502 | 33 | 38 | 0.0 | 3.5 | 0.00 | 0.06 | 0.03 | 97 | 1000.2 |
| 20260509123102 | 33 | 145 | 0.0 | 1.7 | 0.00 | 0.06 | 0.03 | 97 | 1000.6 |
| 20260509121551 | 33 | 359 | 0.0 | 0.9 | 0.01 | 0.06 | 0.03 | 97 | 1000.8 |
| 20260509120045 | 33 | 222 | 0.0 | 0.0 | 0.01 | 0.06 | 0.03 | 97 | 1000.9 |
| 20260509114611 | 33 | 222 | 0.0 | 0.0 | 0.01 | 0.06 | 0.03 | 97 | 1001.2 |
| 20260509113055 | 33 | 222 | 0.0 | 0.0 | 0.01 | 0.06 | 0.03 | 97 | 1001.3 |
| 20260509111551 | 33 | 222 | 0.0 | 0.0 | 0.00 | 0.05 | 0.02 | 97 | 1001.5 |
| 20260509110108 | 33 | 222 | 0.0 | 0.0 | 0.00 | 0.05 | 0.02 | 96 | 1001.6 |
| 20260509104613 | 33 | 222 | 0.0 | 0.0 | 0.01 | 0.05 | 0.02 | 96 | 1001.8 |
| 20260509103050 | 33 | 222 | 0.0 | 0.9 | 0.01 | 0.05 | 0.02 | 96 | 1001.9 |
| 20260509101506 | 33 | 222 | 0.0 | 0.0 | 0.01 | 0.05 | 0.02 | 96 | 1002.2 |
| 20260509100100 | 33 | 222 | 0.0 | 0.0 | 0.01 | 0.05 | 0.02 | 96 | 1002.3 |
| 20260509094609 | 33 | 222 | 0.0 | 0.0 | 0.00 | 0.04 | 0.01 | 96 | 1002.4 |
| 20260509093145 | 34 | 222 | 0.0 | 0.0 | 0.00 | 0.04 | 0.01 | 96 | 1002.5 |
| 20260509091502 | 34 | 222 | 0.0 | 0.0 | 0.00 | 0.04 | 0.01 | 96 | 1002.8 |
| 20260509084557 | 34 | 222 | 0.0 | 0.0 | 0.01 | 0.04 | 0.01 | 95 | 1003.3 |
| 20260509083047 | 34 | 222 | 0.0 | 0.0 | 0.01 | 0.04 | 0.01 | 95 | 1003.5 |
| 20260509081556 | 34 | 222 | 0.0 | 0.0 | 0.01 | 0.04 | 0.01 | 95 | 1003.6 |
| 20260509080053 | 35 | 222 | 0.0 | 0.0 | 0.00 | 0.03 | 0.00 | 95 | 1003.8 |
| 20260509074503 | 35 | 222 | 0.0 | 0.0 | 0.00 | 0.03 | 0.03 | 94 | 1004.0 |
| 20260509073056 | 35 | 222 | 0.0 | 0.0 | 0.01 | 0.03 | 0.03 | 94 | 1003.9 |
| 20260509071559 | 35 | 222 | 0.0 | 0.0 | 0.01 | 0.03 | 0.03 | 93 | 1004.1 |
| 20260509070044 | 35 | 222 | 0.0 | 0.0 | 0.01 | 0.03 | 0.03 | 93 | 1004.3 |
| 20260509064559 | 35 | 222 | 0.0 | 0.9 | 0.01 | 0.03 | 0.03 | 93 | 1004.3 |
| 20260509063055 | 36 | 222 | 0.0 | 0.0 | 0.00 | 0.02 | 0.02 | 93 | 1004.4 |
| 20260509061553 | 36 | 222 | 0.0 | 0.0 | 0.01 | 0.02 | 0.02 | 92 | 1004.7 |
| 20260509060002 | 36 | 222 | 0.0 | 0.0 | 0.01 | 0.02 | 0.02 | 91 | 1004.7 |
| 20260509054616 | 36 | 222 | 0.0 | 0.0 | 0.02 | 0.02 | 0.02 | 91 | 1004.7 |
| 20260509053141 | 36 | 222 | 0.0 | 0.9 | 0.02 | 0.02 | 0.02 | 90 | 1004.6 |
| 20260509051552 | 37 | 250 | 0.0 | 0.0 | 0.01 | 0.01 | 0.01 | 88 | 1004.8 |
| 20260509050005 | 37 | 250 | 0.0 | 0.0 | 0.01 | 0.01 | 0.01 | 87 | 1004.9 |
| 20260509044555 | 38 | 219 | 0.0 | 0.0 | 0.00 | 0.00 | 0.00 | 87 | 1005.1 |
| 20260509043050 | 38 | 150 | 0.0 | 0.0 | 0.00 | 0.00 | 0.00 | 84 | 1005.2 |
| 20260509041546 | 38 | 151 | 0.0 | 0.0 | 0.00 | 0.00 | 0.00 | 83 | 1005.3 |
| 20260509040113 | 39 | 304 | 0.0 | 0.9 | 0.00 | 0.00 | 0.00 | 82 | 1005.4 |
| 20260509034627 | 39 | 309 | 0.0 | 1.7 | 0.00 | 0.00 | 0.00 | 81 | 1005.5 |
| 20260509033049 | 39 | 129 | 0.0 | 0.0 | 0.00 | 0.00 | 0.00 | 80 | 1005.8 |
| 20260509031501 | 39 | 144 | 0.0 | 1.7 | 0.00 | 0.00 | 0.00 | 81 | 1005.9 |
| 20260509030109 | 40 | 226 | 0.0 | 0.9 | 0.00 | 0.00 | 0.00 | 82 | 1005.9 |
| 20260509024554 | 40 | 124 | 0.9 | 3.5 | 0.00 | 0.00 | 0.00 | 80 | 1006.0 |
| 20260509023052 | 40 | 156 | 0.9 | 4.3 | 0.00 | 0.00 | 0.00 | 77 | 1006.0 |
| 20260509021504 | 41 | 96 | 0.0 | 2.6 | 0.00 | 0.00 | 0.00 | 71 | 1006.2 |
| 20260509020056 | 42 | 182 | 1.7 | 7.0 | 0.00 | 0.00 | 0.00 | 68 | 1006.2 |
| 20260509014600 | 43 | 204 | 0.0 | 4.3 | 0.00 | 0.00 | 0.00 | 63 | 1006.1 |
| 20260509013102 | 43 | 162 | 2.6 | 6.1 | 0.00 | 0.00 | 0.00 | 62 | 1006.2 |
| 20260509011503 | 44 | 162 | 0.9 | 6.1 | 0.00 | 0.00 | 0.00 | 63 | 1006.4 |
| 20260509010056 | 43 | 232 | 2.6 | 9.6 | 0.00 | 0.00 | 0.00 | 65 | 1006.4 |
| 20260509004549 | 44 | 253 | 3.5 | 7.8 | 0.00 | 0.00 | 0.00 | 63 | 1006.5 |
| 20260509003134 | 44 | 241 | 3.5 | 7.8 | 0.00 | 0.00 | 0.00 | 62 | 1006.7 |
| 20260509001606 | 44 | 41 | 3.5 | 6.1 | 0.00 | 0.00 | 0.00 | 63 | 1006.9 |
| 20260509000106 | 44 | 84 | 3.5 | 7.8 | 0.00 | 0.00 | 0.00 | 61 | 1007.0 |
| 20260508234546 | 45 | 236 | 4.3 | 10.4 | 0.00 | 0.00 | 0.00 | 58 | 1007.2 |
| 20260508233058 | 45 | 194 | 4.3 | 8.7 | 0.00 | 0.00 | 0.00 | 56 | 1007.1 |
| 20260508231553 | 45 | 89 | 1.7 | 6.1 | 0.00 | 0.00 | 0.00 | 56 | 1007.3 |
| 20260508230043 | 45 | 193 | 3.5 | 9.6 | 0.00 | 0.00 | 0.00 | 58 | 1007.4 |
| 20260508224606 | 45 | 281 | 4.3 | 7.8 | 0.00 | 0.00 | 0.00 | 57 | 1007.7 |
| 20260508223046 | 44 | 195 | 3.5 | 11.3 | 0.00 | 0.00 | 0.00 | 57 | 1007.8 |
| 20260508221507 | 45 | 241 | 4.3 | 12.2 | 0.00 | 0.00 | 0.00 | 54 | 1007.8 |
| 20260508220055 | 46 | 151 | 2.6 | 8.7 | 0.00 | 0.00 | 0.00 | 53 | 1008.0 |
| 20260508214554 | 46 | 252 | 3.5 | 11.3 | 0.00 | 0.00 | 0.00 | 51 | 1008.1 |
| 20260508213046 | 46 | 103 | 2.6 | 8.7 | 0.00 | 0.00 | 0.00 | 54 | 1008.1 |
| 20260508211559 | 46 | 146 | 4.3 | 10.4 | 0.00 | 0.00 | 0.00 | 55 | 1008.4 |
| 20260508210048 | 46 | 214 | 3.5 | 8.7 | 0.00 | 0.00 | 0.00 | 48 | 1008.4 |
| 20260508204547 | 45 | 243 | 4.3 | 8.7 | 0.00 | 0.00 | 0.00 | 53 | 1008.5 |
| 20260508203001 | 46 | 223 | 3.5 | 8.7 | 0.00 | 0.00 | 0.00 | 50 | 1008.7 |
| 20260508201610 | 47 | 245 | 4.3 | 10.4 | 0.00 | 0.00 | 0.00 | 50 | 1008.7 |
| 20260508200108 | 46 | 219 | 3.5 | 7.8 | 0.00 | 0.00 | 0.00 | 49 | 1008.8 |